TimeEDT,TemperatureF,Dew PointF,Humidity,Sea Level PressureIn,VisibilityMPH,Wind Direction,Wind SpeedMPH,Gust SpeedMPH,PrecipitationIn,Events,Conditions,WindDirDegrees,DateUTC
12:54 AM,45.0,39.0,80,29.69,10.0,ESE,5.8,-,N/A,,Mostly Cloudy,120,2013-05-15 04:54:00
1:54 AM,44.1,39.9,85,29.65,9.0,ESE,6.9,-,N/A,,Partly Cloudy,120,2013-05-15 05:54:00
2:54 AM,44.1,42.1,93,29.58,5.0,ESE,10.4,-,N/A,,Mostly Cloudy,120,2013-05-15 06:54:00
3:01 AM,44.6,41.0,87,29.57,5.0,SE,11.5,-,N/A,Thunderstorm,Mostly Cloudy,140,2013-05-15 07:01:00
3:17 AM,44.6,41.0,87,29.56,6.0,ESE,8.1,-,N/A,,Overcast,110,2013-05-15 07:17:00
3:54 AM,44.1,41.0,89,29.54,5.0,SE,12.7,-,N/A,,Partly Cloudy,130,2013-05-15 07:54:00
4:54 AM,44.1,41.0,89,29.51,5.0,Calm,Calm,-,N/A,,Clear,0,2013-05-15 08:54:00
5:54 AM,42.1,41.0,96,29.49,4.0,SE,4.6,-,N/A,,Clear,130,2013-05-15 09:54:00
6:54 AM,44.1,42.1,93,29.49,4.0,Calm,Calm,-,N/A,,Clear,0,2013-05-15 10:54:00
7:54 AM,51.1,44.1,77,29.51,7.0,WNW,4.6,-,N/A,,Clear,290,2013-05-15 11:54:00
8:54 AM,61.0,45.0,56,29.53,10.0,NW,17.3,26.5,N/A,,Clear,310,2013-05-15 12:54:00
9:54 AM,63.0,44.1,50,29.57,10.0,NW,13.8,24.2,N/A,,Clear,310,2013-05-15 13:54:00
10:54 AM,64.0,46.0,52,29.60,10.0,WNW,12.7,19.6,N/A,,Clear,300,2013-05-15 14:54:00
11:54 AM,64.9,45.0,48,29.64,10.0,NW,15.0,28.8,N/A,,Clear,310,2013-05-15 15:54:00
12:54 PM,66.9,44.1,44,29.67,10.0,WNW,11.5,28.8,N/A,,Clear,300,2013-05-15 16:54:00
1:54 PM,69.1,42.1,38,29.68,10.0,NW,15.0,31.1,N/A,,Clear,310,2013-05-15 17:54:00
2:54 PM,71.1,39.9,32,29.69,10.0,NW,13.8,24.2,N/A,,Clear,310,2013-05-15 18:54:00
3:54 PM,72.0,37.0,28,29.69,10.0,NW,15.0,27.6,N/A,,Clear,310,2013-05-15 19:54:00
4:54 PM,73.0,37.0,27,29.69,10.0,WNW,15.0,26.5,N/A,,Clear,290,2013-05-15 20:54:00
5:54 PM,73.0,37.0,27,29.69,10.0,West,13.8,23.0,N/A,,Clear,280,2013-05-15 21:54:00
6:54 PM,73.0,37.9,28,29.70,10.0,WNW,9.2,16.1,N/A,,Clear,300,2013-05-15 22:54:00
7:54 PM,71.1,37.9,30,29.72,10.0,WNW,8.1,16.1,N/A,,Clear,300,2013-05-15 23:54:00
8:54 PM,66.9,33.1,28,29.74,10.0,NW,9.2,-,N/A,,Clear,310,2013-05-16 00:54:00
9:54 PM,62.1,34.0,35,29.76,10.0,West,3.5,-,N/A,,Clear,260,2013-05-16 01:54:00
10:54 PM,59.0,34.0,39,29.76,10.0,WSW,3.5,-,N/A,,Clear,240,2013-05-16 02:54:00
11:54 PM,57.0,35.1,44,29.75,10.0,SW,4.6,-,N/A,,Clear,230,2013-05-16 03:54:00